Location: Suzhou
(31.3110°N, 120.6180°E)
Time: 15:35:31
(UTC+08:00)

NOAA 15 - Visible Passes

Search period start: 21 May 2024 00:00
Search period end: 31 May 2024 00:00
Orbit: 795 x 811 km, 98.6° (Epoch: 20 May)

Date Brightness Start Highest point End Pass type
(mag) Time Alt. Az. Time Alt. Az. Time Alt. Az.
22 May 7.1 19:59:22 10° SW 20:03:02 19° W 20:06:44 10° NW visible
23 May 6.2 19:32:27 10° SSW 19:37:12 36° W 19:41:59 10° NNW visible
25 May 7.5 20:24:48 10° WSW 20:25:51 11° W 20:26:54 10° W visible
26 May 7.0 19:56:05 10° SW 19:59:56 21° W 20:03:48 10° NW visible
27 May 6.0 19:29:15 10° SSW 19:34:05 38° W 19:38:57 10° NNW visible
29 May 7.4 20:20:59 10° WSW 20:22:43 12° W 20:24:27 10° WNW visible
30 May 6.9 19:52:47 10° SSW 19:56:47 22° W 20:00:50 10° NW visible
